| time (UTC) | temp F | wind direction | speed knots | gust knots | rain 1hr in | rain 24hr in | rain mn in | humidity % | barometer mb |
| 20260503233209 | 54 | 82 | 0.9 | 0.0 | 0.00 | 0.00 | 0.00 | 64 | 1015.5 |
| 20260503230209 | 54 | 76 | 1.7 | 0.0 | 0.00 | 0.00 | 0.00 | 62 | 1015.5 |
| 20260503223210 | 55 | 55 | 0.0 | 0.0 | 0.00 | 0.00 | 0.00 | 60 | 1015.5 |
| 20260503213210 | 58 | 340 | 2.6 | 0.0 | 0.00 | 0.00 | 0.00 | 54 | 1015.0 |
| 20260503210211 | 59 | 282 | 2.6 | 0.0 | 0.00 | 0.00 | 0.00 | 55 | 1015.0 |
| 20260503203209 | 60 | 338 | 7.8 | 0.0 | 0.00 | 0.00 | 0.00 | 53 | 1014.3 |
| 20260503200211 | 61 | 321 | 6.1 | 0.0 | 0.00 | 0.00 | 0.00 | 56 | 1014.0 |
| 20260503193210 | 62 | 275 | 0.9 | 0.0 | 0.00 | 0.00 | 0.00 | 57 | 1013.5 |
| 20260503190210 | 64 | 279 | 1.7 | 0.0 | 0.00 | 0.00 | 0.00 | 52 | 1013.1 |
| 20260503183209 | 65 | 159 | 1.7 | 0.0 | 0.00 | 0.00 | 0.00 | 54 | 1012.5 |
| 20260503180210 | 69 | 329 | 3.5 | 0.0 | 0.00 | 0.00 | 0.00 | 39 | 1012.2 |
| 20260503173209 | 71 | 234 | 4.3 | 0.0 | 0.00 | 0.00 | 0.00 | 36 | 1012.5 |
| 20260503170211 | 71 | 215 | 8.7 | 0.0 | 0.00 | 0.00 | 0.00 | 36 | 1012.2 |
| 20260503160211 | 74 | 298 | 5.2 | 0.0 | 0.00 | 0.00 | 0.00 | 35 | 1012.1 |
| 20260503150209 | 76 | 312 | 8.7 | 0.0 | 0.00 | 0.00 | 0.00 | 31 | 1012.4 |
| 20260503140210 | 75 | 215 | 7.8 | 0.0 | 0.00 | 0.00 | 0.00 | 38 | 1012.9 |
| 20260503130210 | 74 | 221 | 7.8 | 0.0 | 0.00 | 0.00 | 0.00 | 34 | 1013.5 |
| 20260503120210 | 73 | 292 | 8.7 | 0.0 | 0.00 | 0.00 | 0.00 | 38 | 1013.9 |
| 20260503110210 | 74 | 188 | 7.0 | 0.0 | 0.00 | 0.00 | 0.00 | 35 | 1014.4 |
| 20260503100212 | 71 | 328 | 5.2 | 0.0 | 0.00 | 0.00 | 0.00 | 36 | 1014.9 |
| 20260503090210 | 69 | 335 | 7.0 | 0.0 | 0.00 | 0.00 | 0.00 | 38 | 1015.7 |
| 20260503080212 | 63 | 250 | 2.6 | 0.0 | 0.00 | 0.00 | 0.00 | 59 | 1015.8 |
| 20260503070211 | 58 | 123 | 0.9 | 0.0 | 0.00 | 0.00 | 0.00 | 67 | 1016.0 |
| 20260503060211 | 47 | 123 | 0.9 | 0.0 | 0.00 | 0.00 | 0.00 | 77 | 1016.1 |
| 20260503053211 | 47 | 123 | 0.0 | 0.0 | 0.00 | 0.00 | 0.00 | 77 | 1016.1 |
| 20260503050212 | 47 | 123 | 0.0 | 0.0 | 0.00 | 0.00 | 0.00 | 77 | 1016.2 |
| 20260503043211 | 47 | 123 | 0.9 | 0.0 | 0.00 | 0.00 | 0.00 | 77 | 1016.2 |
| 20260503040210 | 47 | 123 | 0.0 | 0.0 | 0.00 | 0.00 | 0.00 | 77 | 1016.5 |
| 20260503033211 | 47 | 123 | 1.7 | 0.0 | 0.00 | 0.00 | 0.00 | 77 | 1016.5 |
| 20260503030211 | 47 | 123 | 0.9 | 0.0 | 0.00 | 0.00 | 0.00 | 77 | 1016.5 |
| 20260503023211 | 47 | 123 | 1.7 | 0.0 | 0.00 | 0.00 | 0.00 | 77 | 1016.9 |
| 20260503020211 | 47 | 123 | 1.7 | 0.0 | 0.00 | 0.00 | 0.00 | 77 | 1017.0 |
| 20260503013211 | 47 | 123 | 0.9 | 0.0 | 0.00 | 0.00 | 0.00 | 77 | 1017.2 |
| 20260503010211 | 47 | 123 | 0.0 | 0.0 | 0.00 | 0.00 | 0.00 | 77 | 1017.4 |
| 20260503003209 | 47 | 123 | 1.7 | 0.0 | 0.00 | 0.00 | 0.00 | 77 | 1017.5 |
| 20260503000211 | 47 | 123 | 0.0 | 0.0 | 0.00 | 0.00 | 0.00 | 77 | 1017.7 |